Regional Weather Roundup
Issued by NWS Midland/Odessa, TX

Skip options and go directly to product.
Home | Oldest Version | Previous Version | Current Version | All | Text Only | Save Text | Print | Product List | Glossary Off

Skip product version selection by date and time.   

666
ASUS44 KMAF 020110
RWRMAF
MIDLAND AREA WEATHER ROUNDUP
NATIONAL WEATHER SERVICE MIDLAND TX
800 PM CDT MON SEP 01 2014

...IN SOUTHWEST TEXAS AND SOUTHEAST NEW MEXICO...

CITY           SKY/WX    TMP DP  RH WIND       PRES   REMARKS
ALPINE         MOCLDY    87  46  23 SW7       30.03F
ANDREWS        FAIR      98  41  14 SW9       29.85S
ARTESIA        NOT AVBL
BIG SPRING     CLEAR    100  58  25 SE14      29.84S
CARLSBAD       CLEAR    100  34  10 W10       29.84S
DRYDEN           N/A     98  59  27 SE14      29.82R
FORT STOCKTON  PTCLDY    94  57  28 SE16G24   29.86R
GUAD PASS      CLEAR     87  38  17 SW15G21   30.07S
HOBBS          CLEAR     95  39  14 S8        29.89S
MARFA          MOCLDY    91  45  19 E6        30.04S
MIDLAND AIRPK  NOT AVBL
MIDLAND INTL   CLEAR     98  54  22 S15       29.83S
ODESSA         CLEAR     98  51  20 S13       29.85R
PECOS          CLEAR    100  44  14 SE6       29.79S
PRESIDIO       FAIR     100  48  17 NW3       29.82S
SEMINOLE       CLEAR     97  40  13 SW6       29.87S
SNYDER         CLEAR     97  62  32 SE16      29.83S
WINK           CLEAR    102  42  13 S7        29.80S
$$
...OTHER STATIONS IN TEXAS...

CITY           SKY/WX    TMP DP  RH WIND       PRES   REMARKS
ABILENE        CLEAR     94  59  31 SE16      29.83R
AMARILLO       CLEAR     89  56  32 E5        29.90S
AUSTIN         PTCLDY    90  70  51 SE15G24   29.85R
BROWNSVILLE    CLEAR     85  78  80 E10       29.85S
CORPUS CHRISTI PTCLDY    85  76  74 SE15      29.87R
DALLAS FTW     PTCLDY    92  67  43 S15G24    29.84R
DEL RIO        CLEAR     97  62  31 SE12      29.78R
EL PASO        FAIR      96  33  11 SW14      29.92S
HOUSTON INT    PTCLDY    84  75  74 SE12      29.91R
LUBBOCK        PTCLDY    95  46  18 S9        29.84S
SAN ANGELO     CLEAR     95  60  31 S13       29.83S
SAN ANTONIO    PTCLDY    91  70  49 SE18G26   29.86R
WACO           CLEAR     91  67  44 SE13      29.84S
WICHITA FALLS  NOT AVBL
$$
...OTHER LOCATIONS IN NEW MEXICO...

CITY           SKY/WX    TMP DP  RH WIND       PRES   REMARKS
ALAMAGORDO     CLEAR     91  34  13 S3        29.95S
ALBUQUERQUE    PTCLDY    90  36  14 SW7       30.01F
CANNON AFB     CLEAR     90  44  19 SW5       29.93S
CLOVIS           N/A     90  39  17 SW7       29.95S
HOLLOMAN AFB   CLEAR     94  31  10 S5        29.92F
ROSWELL        CLEAR     94  44  17 SE7       29.87S
RUIDOSO        CLEAR     79  32  18 W8        30.19S
SANTA FE       CLEAR     84  30  14 W13       30.08S
TRUTH OR CONSE CLEAR     92  32  12 SE8       29.97S
TUCUMCARI      CLEAR     94  39  14 S8        29.87S
$$

USA.gov is the U.S. government's official web portal to all federal, state and local government web resources and services.